Nantucket, MA

12:56 AM EDT on August 20, 2017 (GMT -0400)
Nantucket Memorial

Weather History for KACK - March, 2013

Change the Weather History Date:

Wednesday, March 27, 2013

  Actual Average Record
Temperature  
Mean Temperature 41 °F -  
Max Temperature 50 °F 43 °F 55 °F (2007)
Min Temperature 34 °F 31 °F 17 °F (1975)
Degree Days  
Heating Degree Days 24    
Moisture  
Dew Point 30 °F    
Average Humidity 64    
Maximum Humidity 86    
Minimum Humidity 41    
Precipitation  
Precipitation 0.00 in - - ()
Sea Level Pressure  
Sea Level Pressure 29.79 in    
Wind  
Wind Speed 10 mph (WNW)    
Max Wind Speed 18 mph    
Max Gust Speed 26 mph    
Visibility 10 miles    
Events      
Averages and records for this station are not official NWS values.
T = Trace of Precipitation, MM = Missing Value Source: NWS Daily Summary

Daily Weather History Graph

Daily Weather History Graph

Search for Another Location

Airport or City:

Trip Planner

Search our weather history database for the weather conditions in past years. The results will help you decide how hot, cold, wet, or windy it might be!

Date:

Astronomy

Mar. 27, 2013 Rise Set
Actual Time 6:31 AM EDT 7:00 PM EDT
Civil Twilight 6:03 AM EDT 7:27 PM EDT
Nautical Twilight 5:31 AM EDT 8:00 PM EDT
Astronomical Twilight 4:57 AM EDT 8:34 PM EDT
Moon 7:41 PM EDT (3/27) 6:20 AM EDT (3/27)
Length of Visible Light 13h 24m
Length of Day
12h 28m
Full, 100% of the Moon is Illuminated
Mar 27
Full
Apr 3
Last Quarter
Apr 10
New
Apr 18
First Quarter
Apr 25
Full

Hourly Weather History & Observations

Time (EDT) Temp. Windchill Dew Point Humidity Pressure Visibility Wind Dir Wind Speed Gust Speed Precip Events Conditions
12:53 AM 37.9 °F 31.5 °F 32.0 °F 79% 29.77 in 10.0 mi West 9.2 mph - N/A   Clear
1:53 AM 37.0 °F 31.0 °F 28.0 °F 70% 29.77 in 10.0 mi WNW 8.1 mph - N/A   Clear
2:53 AM 37.9 °F 31.5 °F 27.0 °F 65% 29.76 in 10.0 mi NW 9.2 mph - N/A   Clear
3:53 AM 37.0 °F 30.4 °F 27.0 °F 67% 29.76 in 10.0 mi NW 9.2 mph - N/A   Clear
4:53 AM 36.0 °F 30.3 °F 27.0 °F 70% 29.76 in 10.0 mi NW 6.9 mph - N/A   Clear
5:53 AM 35.1 °F 29.3 °F 27.0 °F 72% 29.77 in 10.0 mi NW 6.9 mph - N/A   Clear
6:53 AM 34.0 °F 28.8 °F 27.0 °F 75% 29.78 in 10.0 mi WNW 5.8 mph - N/A   Clear
7:53 AM 39.9 °F 35.1 °F 30.0 °F 68% 29.80 in 10.0 mi WNW 6.9 mph - N/A   Clear
8:53 AM 43.0 °F 37.2 °F 26.1 °F 51% 29.81 in 10.0 mi WNW 10.4 mph - N/A   Clear
9:53 AM 45.0 °F 38.9 °F 25.0 °F 46% 29.81 in 10.0 mi WNW 12.7 mph - N/A   Clear
10:53 AM 48.0 °F - 25.0 °F 41% 29.80 in 10.0 mi WNW 9.2 mph - N/A   Clear
11:53 AM 48.0 °F - 27.0 °F 44% 29.79 in 10.0 mi West 10.4 mph 16.1 mph N/A   Clear
12:53 PM 48.9 °F - 32.0 °F 52% 29.78 in 10.0 mi WSW 15.0 mph - N/A   Clear
1:53 PM 45.0 °F 38.5 °F 32.0 °F 60% 29.78 in 10.0 mi SW 13.8 mph - N/A   Clear
2:53 PM 46.9 °F - 33.1 °F 59% 29.77 in 10.0 mi WSW 13.8 mph - N/A   Scattered Clouds
3:53 PM 48.9 °F - 30.9 °F 50% 29.76 in 10.0 mi West 18.4 mph - N/A   Clear
4:53 PM 46.9 °F - 33.1 °F 59% 29.76 in 10.0 mi West 17.3 mph 26.5 mph N/A   Partly Cloudy
5:53 PM 45.0 °F 38.5 °F 34.0 °F 65% 29.77 in 10.0 mi West 13.8 mph - N/A   Scattered Clouds
6:53 PM 43.0 °F 35.7 °F 34.0 °F 71% 29.77 in 10.0 mi West 15.0 mph - N/A   Scattered Clouds
7:53 PM 43.0 °F 38.2 °F 34.0 °F 71% 29.78 in 10.0 mi WNW 8.1 mph - N/A   Overcast
8:53 PM 46.0 °F 39.6 °F 32.0 °F 58% 29.80 in 10.0 mi North 15.0 mph 20.7 mph N/A   Overcast
9:12 PM 42.8 °F 35.8 °F 32.0 °F 66% 29.82 in 10.0 mi NNE 13.8 mph - N/A   Overcast
9:53 PM 39.9 °F 33.9 °F 33.1 °F 77% 29.83 in 10.0 mi NNE 9.2 mph - N/A   Clear
10:53 PM 39.0 °F 34.8 °F 34.0 °F 82% 29.83 in 10.0 mi North 5.8 mph - N/A   Partly Cloudy
11:53 PM 39.9 °F 35.1 °F 36.0 °F 86% 29.83 in 10.0 mi NW 6.9 mph - N/A   Overcast